TimeAKST,TemperatureF,Dew PointF,Humidity,Sea Level PressureIn,VisibilityMPH,Wind Direction,Wind SpeedMPH,Gust SpeedMPH,PrecipitationIn,Events,Conditions,WindDirDegrees,DateUTC
12:42 AM,-18.4,-25.6,70,30.12,2.0,NW,13.8,-,N/A,,Haze,320,2014-02-12 09:42:00
12:56 AM,-18.9,-26.0,70,30.14,4.0,NW,12.7,-,N/A,,Haze,320,2014-02-12 09:56:00
1:09 AM,-18.4,-27.4,63,30.12,6.0,NW,13.8,-,N/A,,Haze,320,2014-02-12 10:09:00
1:56 AM,-18.9,-26.9,67,30.12,4.0,NW,13.8,-,N/A,,Haze,320,2014-02-12 10:56:00
2:07 AM,-18.4,-27.4,63,30.10,3.0,NW,12.7,-,N/A,,Haze,320,2014-02-12 11:07:00
2:23 AM,-18.4,-27.4,63,30.10,2.5,NW,16.1,-,N/A,,Haze,320,2014-02-12 11:23:00
2:31 AM,-18.4,-27.4,63,30.10,4.0,NW,15.0,-,N/A,,Haze,320,2014-02-12 11:31:00
2:38 AM,-18.4,-27.4,63,30.10,4.0,NW,13.8,-,N/A,,Haze,320,2014-02-12 11:38:00
2:56 AM,-20.2,-27.4,69,30.10,3.0,NW,15.0,-,N/A,,Haze,320,2014-02-12 11:56:00
3:04 AM,-20.2,-27.4,69,30.10,3.0,NNW,15.0,-,N/A,,Haze,330,2014-02-12 12:04:00
3:15 AM,-20.2,-27.4,69,30.09,6.0,NNW,15.0,-,N/A,,Haze,330,2014-02-12 12:15:00
3:46 AM,-20.2,-27.4,69,30.09,5.0,NNW,13.8,-,N/A,,Haze,330,2014-02-12 12:46:00
3:56 AM,-19.8,-27.9,66,30.10,5.0,NNW,12.7,-,N/A,,Haze,330,2014-02-12 12:56:00
4:04 AM,-20.2,-27.4,69,30.08,7.0,NW,16.1,-,N/A,,Scattered Clouds,320,2014-02-12 13:04:00
4:56 AM,-19.8,-27.9,66,30.10,5.0,NW,12.7,-,N/A,,Haze,320,2014-02-12 13:56:00
5:44 AM,-20.2,-27.4,69,30.07,2.5,NNW,15.0,-,N/A,,Haze,330,2014-02-12 14:44:00
5:56 AM,-20.2,-27.4,69,30.07,4.0,NNW,12.7,-,N/A,,Haze,330,2014-02-12 14:56:00
6:56 AM,-20.9,-28.8,67,30.08,6.0,NNW,11.5,-,N/A,,Haze,340,2014-02-12 15:56:00
7:34 AM,-20.2,-29.2,63,30.06,3.0,NNW,12.7,-,N/A,,Haze,330,2014-02-12 16:34:00
7:38 AM,-20.2,-29.2,63,30.06,2.5,NNW,13.8,-,N/A,,Haze,330,2014-02-12 16:38:00
7:56 AM,-20.9,-27.9,70,30.07,1.8,NNW,15.0,-,0.00,Snow,Light Snow,340,2014-02-12 16:56:00
8:06 AM,-20.2,-27.4,69,30.05,-9999.0,NNW,12.7,-,0.00,,Overcast,340,2014-02-12 17:06:00
8:56 AM,-22.0,-28.8,71,30.07,-9999.0,North,11.5,-,0.00,,Mostly Cloudy,350,2014-02-12 17:56:00
9:02 AM,-22.0,-29.2,69,30.05,-9999.0,North,11.5,-,N/A,,Mostly Cloudy,350,2014-02-12 18:02:00
9:04 AM,-22.0,-29.2,69,30.05,1.5,North,11.5,-,N/A,,Haze,350,2014-02-12 18:04:00
9:10 AM,-22.0,-29.2,69,30.05,-9999.0,North,10.4,-,N/A,,Mostly Cloudy,350,2014-02-12 18:10:00
9:18 AM,-22.0,-29.2,69,30.05,-9999.0,North,11.5,-,N/A,,Mostly Cloudy,350,2014-02-12 18:18:00
9:26 AM,-22.0,-29.2,69,30.05,-9999.0,North,11.5,-,N/A,,Mostly Cloudy,350,2014-02-12 18:26:00
9:40 AM,-22.0,-29.2,69,30.05,-9999.0,North,12.7,-,N/A,,Mostly Cloudy,350,2014-02-12 18:40:00
9:56 AM,-22.0,-28.8,71,30.07,-9999.0,North,10.4,-,N/A,,Mostly Cloudy,350,2014-02-12 18:56:00
10:10 AM,-22.0,-29.2,69,30.05,-9999.0,North,11.5,-,N/A,,Mostly Cloudy,350,2014-02-12 19:10:00
10:21 AM,-22.0,-29.2,69,30.05,-9999.0,North,10.4,-,N/A,,Mostly Cloudy,360,2014-02-12 19:21:00
10:56 AM,-22.9,-29.9,70,30.07,-9999.0,North,8.1,-,N/A,,Mostly Cloudy,360,2014-02-12 19:56:00
11:06 AM,-23.8,-29.2,76,30.06,-9999.0,North,8.1,-,N/A,,Mostly Cloudy,360,2014-02-12 20:06:00
11:11 AM,-23.8,-29.2,76,30.06,-9999.0,North,6.9,-,N/A,,Mostly Cloudy,350,2014-02-12 20:11:00
11:45 AM,-23.8,-31.0,69,30.06,4.0,North,8.1,-,N/A,,Haze,360,2014-02-12 20:45:00
11:56 AM,-25.6,-31.0,76,30.06,3.0,NNE,5.8,-,N/A,,Haze,20,2014-02-12 20:56:00
11:59 AM,-25.6,-31.0,76,30.06,2.5,NNE,6.9,-,N/A,,Haze,30,2014-02-12 20:59:00
12:14 PM,-23.8,-29.2,76,30.06,8.0,NE,5.8,-,N/A,,Mostly Cloudy,40,2014-02-12 21:14:00
12:56 PM,-22.9,-28.8,74,30.07,-9999.0,NNE,3.5,-,N/A,,Clear,20,2014-02-12 21:56:00
1:56 PM,-24.9,-31.0,73,30.06,-9999.0,NE,4.6,-,N/A,,Clear,40,2014-02-12 22:56:00
2:56 PM,-25.6,-32.8,69,30.04,-9999.0,NE,8.1,-,N/A,,Clear,50,2014-02-12 23:56:00
3:56 PM,-26.0,-31.9,73,30.05,-9999.0,ENE,6.9,-,N/A,,Clear,60,2014-02-13 00:56:00
4:56 PM,-29.9,-9999,N/A,30.05,-9999.0,ENE,6.9,-,N/A,,Clear,70,2014-02-13 01:56:00
5:56 PM,-31.0,-9999,N/A,30.05,10.0,ENE,5.8,-,N/A,,Clear,70,2014-02-13 02:56:00
6:56 PM,-31.9,-9999,N/A,30.05,10.0,North,-9999.0,-,N/A,,Clear,0,2014-02-13 03:56:00
7:56 PM,-35.9,-9999,N/A,30.06,10.0,ENE,6.9,-,N/A,,Clear,70,2014-02-13 04:56:00
8:56 PM,-35.0,-9999,N/A,30.05,10.0,ENE,9.2,-,N/A,,Clear,70,2014-02-13 05:56:00
9:56 PM,-37.8,-9999,N/A,30.06,-9999.0,ENE,5.8,-,N/A,,Clear,60,2014-02-13 06:56:00
10:56 PM,-38.9,-9999,N/A,30.06,10.0,ENE,8.1,-,N/A,,Clear,70,2014-02-13 07:56:00
11:56 PM,-38.2,-9999,N/A,30.05,-9999.0,NE,5.8,-,N/A,,Clear,50,2014-02-13 08:56:00